Location: Molveno
(46.1500°N, 10.9667°E)
Time: 01:30:16
(UTC+00:00)

SPOT 1/Viking Rocket - Pass Details

Date: 05 July 2020
Orbit: 778 x 793 km, 98.5° (Epoch: 11 August)

Event Time Altitude Azimuth Distance (km) Brightness Sun altitude
Exits shadow 19:51:15 - 140° (SE) 2,541 5.5 -6.4°
Reaches altitude 10° 19:51:48 10° 138° (SE) 2,328 5.3 -6.5°
Maximum altitude 19:56:38 43° 68° (ENE) 1,087 4.1 -7.1°
Drops below altitude 10° 20:01:31 10° 358° (N) 2,352 6.8 -7.7°
Sets 20:03:56 0° 352° (N) 3,287 7.7 -8.0°
